Temp
-11 -11 -11 -11 -11 -11 -11 -10 -10 -10 -10 -10 -10 -10 -10 -10 -10 -10 -10 -10 -10 -10 -10 -9 -9 -10 -10 -10 -10 -10 -10 -10 -10 -10 -10 -10 -10 -10 -10 -10 -10 -10 -10
-12 -11 -11 -11 -11 -11 -11 -11 -11 -11 -11 -11 -11 -10 -10 -10 -10 -11 -11 -10 -10 -10 -10 -10 -10 -10 -10 -10 -10 -11 -11 -11 -11 -11 -11 -10 -10 -10 -10 -11 -11 -11 -10
-12 -12 -12 -12 -11 -11 -11 -11 -11 -11 -11 -11 -11 -11 -11 -11 -11 -12 -12 -12 -11 -11 -11 -11 -11 -11 -11 -11 -11 -11 -11 -11 -11 -12 -12 -11 -10 -10 -10 -11 -11 -11 -11
-12 -12 -12 -12 -12 -12 -12 -12 -12 -12 -12 -12 -12 -12 -12 -12 -12 -12 -12 -11 -12 -11 -11 -11 -11 -11 -11 -11 -11 -11 -11 -11 -11 -12 -12 -12 -12 -11 -11 -11 -11 -11 -11
-13 -13 -13 -13 -13 -13 -13 -13 -13 -13 -12 -12 -12 -12 -12 -12 -12 -12 -12 -12 -12 -12 -12 -12 -13 -13 -12 -12 -12 -12 -12 -12 -12 -13 -12 -13 -12 -12 -12 -11 -11 -11 -11
-14 -14 -14 -13 -13 -13 -14 -14 -13 -13 -13 -13 -13 -13 -12 -12 -12 -12 -12 -12 -12 -12 -12 -12 -12 -12 -12 -12 -13 -13 -13 -13 -14 -14 -13 -13 -13 -13 -13 -12 -12 -13 -12
-14 -14 -14 -14 -14 -13 -13 -13 -13 -13 -13 -13 -13 -12 -12 -12 -12 -12 -13 -12 -12 -13 -12 -12 -12 -12 -13 -13 -13 -14 -13 -13 -14 -14 -14 -14 -14 -14 -13 -13 -13 -12 -13
-15 -14 -14 -14 -14 -14 -13 -13 -14 -13 -13 -13 -13 -13 -13 -12 -12 -12 -11 -11 -11 -12 -12 -12 -13 -13 -14 -15 -15 -15 -15 -14 -15 -14 -14 -15 -15 -15 -14 -14 -13 -13 -13
-14 -14 -14 -14 -14 -14 -14 -14 -14 -14 -14 -14 -13 -12 -12 -12 -12 -12 -11 -11 -11 -11 -12 -12 -13 -14 -15 -16 -16 -17 -16 -17 -16 -16 -15 -15 -16 -16 -15 -15 -15 -14 -14
-14 -15 -14 -14 -14 -14 -14 -15 -15 -14 -14 -14 -13 -13 -13 -13 -12 -11 -11 -11 -11 -12 -12 -13 -14 -15 -16 -18 -18 -17 -17 -17 -17 -17 -17 -17 -16 -17 -16 -17 -16 -16 -15
-14 -14 -14 -14 -14 -14 -14 -14 -14 -14 -15 -15 -14 -13 -13 -13 -12 -11 -11 -12 -12 -13 -13 -13 -14 -15 -18 -19 -20 -20 -20 -19 -18 -18 -19 -19 -18 -17 -18 -17 -17 -17 -16
-14 -14 -14 -14 -14 -14 -14 -14 -14 -15 -15 -15 -15 -14 -13 -14 -13 -13 -12 -13 -13 -13 -14 -14 -14 -15 -18 -20 -21 -22 -22 -21 -20 -19 -20 -20 -19 -18 -18 -18 -18 -18 -17
-13 -13 -14 -14 -14 -14 -14 -14 -14 -15 -15 -15 -15 -15 -14 -13 -13 -13 -14 -13 -13 -14 -14 -14 -14 -16 -18 -21 -22 -23 -23 -23 -22 -21 -21 -22 -22 -20 -19 -19 -19 -18 -18
-13 -13 -13 -13 -13 -14 -14 -14 -14 -15 -14 -15 -15 -15 -15 -15 -15 -14 -14 -13 -14 -14 -14 -15 -15 -16 -18 -20 -22 -22 -23 -23 -23 -22 -22 -22 -22 -21 -20 -19 -19 -19 -18
-13 -13 -13 -13 -13 -13 -14 -14 -14 -15 -15 -15 -15 -15 -15 -15 -16 -15 -15 -14 -14 -14 -14 -15 -15 -16 -17 -19 -21 -21 -23 -23 -23 -23 -22 -22 -22 -21 -20 -20 -20 -20 -19
-13 -13 -14 -14 -14 -14 -14 -14 -14 -15 -15 -15 -15 -15 -15 -15 -15 -15 -15 -15 -15 -15 -15 -15 -15 -16 -16 -17 -19 -21 -21 -21 -22 -23 -22 -21 -21 -21 -21 -20 -20 -20 -19
-13 -14 -14 -14 -14 -14 -14 -14 -14 -15 -15 -15 -15 -15 -15 -15 -15 -15 -15 -15 -15 -15 -16 -15 -15 -16 -16 -17 -18 -19 -20 -21 -21 -21 -21 -21 -21 -21 -21 -20 -20 -20 -19
-14 -14 -14 -14 -14 -15 -15 -15 -14 -14 -14 -14 -15 -15 -15 -15 -15 -15 -15 -15 -15 -15 -15 -16 -15 -15 -16 -16 -16 -17 -19 -20 -20 -20 -21 -21 -21 -20 -20 -20 -20 -19 -19
-14 -14 -14 -14 -14 -15 -15 -15 -14 -14 -14 -14 -14 -14 -14 -14 -15 -15 -15 -15 -15 -15 -15 -15 -16 -15 -15 -16 -16 -16 -17 -17 -18 -19 -19 -19 -19 -19 -20 -20 -19 -19 -19
-14 -14 -14 -14 -14 -14 -14 -14 -14 -14 -14 -14 -14 -14 -14 -14 -14 -14 -15 -15 -15 -15 -15 -15 -15 -15 -15 -16 -16 -16 -16 -17 -17 -18 -18 -18 -18 -19 -19 -18 -18 -18 -17
-13 -13 -14 -14 -14 -14 -14 -14 -14 -14 -14 -14 -14 -14 -14 -14 -14 -15 -14 -14 -15 -15 -15 -15 -15 -15 -15 -15 -15 -15 -16 -16 -17 -17 -17 -17 -18 -18 -18 -18 -18 -18 -17
-12 -12 -13 -14 -14 -14 -14 -14 -14 -14 -14 -14 -15 -15 -15 -15 -15 -15 -15 -15 -15 -15 -15 -15 -15 -15 -15 -15 -15 -15 -15 -15 -16 -16 -16 -16 -17 -17 -17 -17 -17 -17 -17
-14 -14 -13 -13 -14 -14 -15 -15 -15 -15 -15 -15 -15 -15 -15 -15 -15 -15 -15 -15 -15 -15 -15 -15 -15 -15 -15 -15 -15 -15 -15 -15 -15 -16 -16 -16 -16 -17 -16 -16 -16 -16 -16
-14 -14 -14 -14 -13 -14 -14 -15 -15 -15 -15 -15 -15 -15 -15 -15 -16 -16 -16 -16 -15 -15 -16 -15 -15 -15 -15 -15 -15 -15 -15 -15 -15 -15 -15 -15 -15 -15 -16 -16 -16 -16 -15
-13 -14 -14 -14 -14 -14 -14 -14 -15 -15 -14 -15 -15 -15 -15 -15 -15 -16 -16 -16 -16 -16 -15 -15 -16 -15 -15 -15 -16 -16 -15 -15 -15 -15 -15 -15 -15 -15 -14 -15 -15 -15 -15
-14 -14 -15 -14 -14 -14 -15 -15 -14 -15 -15 -15 -15 -16 -16 -15 -15 -15 -15 -16 -16 -16 -15 -15 -15 -15 -15 -15 -16 -16 -15 -16 -16 -15 -15 -15 -15 -15 -15 -15 -15 -15 -15
Height
5779 5778 5778 5778 5777 5775 5775 5773 5773 5771 5770 5769 5768 5767 5767 5765 5764 5762 5761 5761 5760 5759 5758 5758 5759 5761 5762 5763 5764 5765 5766 5770 5773 5777 5777 5773 5779 5781 5782 5784 5790 5792 5793
5767 5767 5767 5767 5765 5763 5761 5760 5758 5757 5755 5754 5753 5751 5750 5749 5747 5745 5743 5741 5741 5741 5739 5739 5739 5740 5742 5745 5746 5747 5750 5751 5754 5758 5759 5760 5762 5766 5771 5773 5775 5780 5782
5757 5756 5755 5754 5752 5751 5749 5747 5745 5743 5740 5738 5736 5734 5733 5732 5729 5727 5726 5723 5720 5719 5720 5720 5719 5720 5719 5723 5726 5728 5729 5733 5735 5737 5739 5744 5748 5753 5756 5760 5763 5767 5770
5748 5747 5745 5743 5742 5739 5736 5732 5730 5728 5725 5722 5721 5718 5716 5715 5710 5709 5707 5705 5702 5699 5696 5696 5697 5698 5698 5701 5703 5705 5707 5709 5713 5715 5719 5723 5730 5734 5740 5747 5748 5753 5755
5737 5736 5735 5733 5730 5728 5724 5721 5718 5715 5712 5708 5706 5703 5701 5699 5697 5694 5690 5686 5684 5680 5677 5675 5673 5676 5677 5679 5679 5679 5680 5683 5689 5693 5698 5703 5709 5714 5720 5726 5732 5736 5742
5728 5727 5725 5724 5721 5717 5715 5711 5709 5706 5702 5699 5696 5692 5688 5685 5682 5678 5675 5670 5667 5662 5658 5656 5655 5655 5656 5657 5658 5658 5659 5661 5665 5671 5675 5679 5686 5693 5702 5707 5715 5720 5725
5720 5719 5717 5717 5714 5711 5707 5704 5702 5699 5695 5691 5685 5680 5676 5671 5667 5664 5659 5655 5651 5646 5642 5638 5637 5636 5635 5634 5634 5636 5638 5642 5643 5649 5653 5657 5663 5672 5680 5684 5693 5697 5705
5713 5713 5713 5712 5708 5704 5701 5698 5695 5691 5686 5680 5674 5669 5665 5661 5656 5650 5645 5640 5635 5631 5626 5620 5617 5613 5611 5609 5609 5611 5614 5618 5621 5627 5631 5636 5641 5649 5656 5664 5672 5677 5684
5710 5711 5710 5708 5703 5699 5696 5693 5689 5686 5681 5674 5666 5659 5655 5651 5646 5640 5632 5627 5623 5616 5609 5603 5598 5592 5588 5585 5583 5585 5589 5590 5596 5603 5607 5613 5620 5627 5637 5642 5649 5653 5663
5708 5707 5706 5703 5698 5695 5693 5690 5687 5683 5677 5667 5660 5654 5649 5642 5634 5629 5625 5620 5614 5607 5600 5593 5585 5579 5571 5563 5557 5558 5561 5562 5570 5577 5584 5592 5600 5607 5615 5623 5629 5634 5642
5704 5703 5702 5699 5696 5695 5692 5688 5684 5677 5671 5663 5654 5649 5644 5636 5628 5625 5619 5612 5606 5598 5590 5582 5573 5563 5552 5542 5529 5528 5533 5538 5546 5553 5562 5572 5582 5589 5597 5606 5612 5618 5624
5702 5700 5698 5695 5693 5692 5689 5684 5679 5673 5668 5660 5653 5645 5641 5633 5627 5621 5614 5608 5601 5591 5582 5572 5562 5549 5537 5525 5507 5499 5504 5516 5527 5537 5545 5557 5565 5574 5582 5589 5597 5603 5609
5698 5695 5692 5690 5688 5686 5684 5679 5675 5670 5665 5659 5652 5644 5638 5631 5623 5616 5608 5602 5593 5583 5573 5563 5553 5540 5528 5515 5499 5487 5488 5498 5511 5523 5532 5542 5551 5560 5568 5576 5582 5588 5594
5694 5691 5688 5685 5682 5680 5678 5675 5670 5665 5661 5656 5650 5643 5636 5630 5623 5613 5606 5598 5589 5578 5566 5557 5547 5536 5524 5512 5502 5495 5493 5496 5504 5513 5522 5532 5541 5552 5557 5563 5569 5573 5578
5689 5686 5682 5678 5674 5672 5671 5669 5666 5662 5657 5653 5647 5641 5635 5628 5621 5612 5604 5595 5585 5575 5564 5553 5544 5535 5523 5513 5507 5502 5498 5499 5502 5511 5520 5527 5537 5544 5548 5553 5558 5562 5566
5684 5680 5676 5672 5668 5665 5664 5663 5661 5658 5654 5650 5644 5638 5632 5626 5619 5611 5602 5594 5584 5575 5563 5553 5543 5533 5524 5516 5511 5506 5503 5502 5504 5511 5518 5524 5530 5535 5540 5545 5549 5553 5557
5680 5676 5673 5669 5664 5660 5659 5658 5656 5655 5652 5647 5643 5637 5631 5624 5618 5611 5603 5594 5585 5576 5567 5555 5546 5537 5528 5519 5512 5507 5505 5505 5507 5510 5514 5518 5523 5527 5532 5538 5541 5544 5548
5673 5670 5667 5663 5659 5656 5653 5652 5652 5650 5648 5644 5640 5635 5629 5622 5616 5609 5602 5595 5587 5578 5570 5561 5551 5541 5533 5525 5518 5512 5509 5509 5509 5510 5512 5515 5519 5522 5525 5530 5532 5535 5540
5667 5664 5660 5657 5654 5651 5648 5647 5646 5644 5641 5639 5635 5630 5625 5620 5613 5607 5600 5594 5587 5580 5573 5564 5556 5548 5538 5530 5523 5518 5514 5512 5511 5512 5513 5515 5517 5520 5523 5526 5528 5532 5535
5665 5661 5655 5650 5648 5645 5643 5641 5639 5637 5634 5631 5628 5624 5620 5615 5610 5605 5599 5592 5586 5579 5573 5567 5560 5553 5545 5538 5531 5525 5521 5516 5515 5514 5514 5516 5517 5518 5520 5523 5525 5528 5532
5660 5656 5652 5649 5644 5638 5635 5633 5631 5630 5628 5624 5621 5617 5613 5609 5605 5600 5596 5590 5584 5579 5573 5567 5562 5556 5549 5544 5538 5532 5528 5523 5520 5517 5515 5516 5517 5518 5519 5521 5523 5525 5528
5655 5652 5648 5644 5641 5637 5633 5628 5625 5623 5620 5617 5613 5610 5606 5602 5598 5594 5589 5585 5580 5576 5571 5566 5562 5557 5552 5546 5542 5537 5534 5529 5525 5522 5520 5519 5519 5519 5519 5520 5522 5523 5525
5648 5643 5640 5637 5633 5631 5629 5626 5621 5615 5611 5609 5605 5601 5598 5595 5591 5587 5583 5579 5575 5571 5567 5563 5558 5555 5551 5547 5544 5539 5536 5533 5530 5528 5525 5524 5523 5521 5521 5521 5522 5523 5523
5640 5637 5633 5629 5625 5622 5618 5617 5614 5611 5607 5601 5598 5595 5592 5588 5585 5582 5578 5574 5570 5566 5562 5559 5555 5552 5548 5545 5542 5539 5537 5534 5531 5529 5527 5524 5522 5521 5521 5519 5520 5521 5523
5629 5627 5623 5620 5616 5612 5608 5604 5601 5600 5597 5594 5591 5586 5581 5579 5576 5574 5572 5568 5565 5562 5558 5554 5550 5548 5545 5541 5538 5535 5533 5531 5529 5527 5525 5524 5523 5521 5519 5518 5518 5517 5517
5617 5613 5610 5607 5603 5602 5598 5594 5591 5588 5585 5583 5580 5576 5574 5570 5566 5564 5562 5559 5557 5554 5551 5548 5545 5542 5539 5536 5533 5530 5528 5526 5524 5522 5521 5520 5518 5518 5517 5516 5515 5515 5514
Wind_Speed
50 51 52 52 54 56 57 59 60 61 63 64 65 66 65 66 67 68 68 69 69 69 70 71 70 68 68 68 68 67 67 65 63 60 57 48 59 60 59 56 53 48 48
50 51 52 53 54 56 58 60 61 61 62 63 64 67 67 68 68 68 70 72 73 73 75 75 75 74 73 72 71 71 71 71 69 68 66 68 54 60 60 59 53 50 54
51 52 54 55 56 56 57 58 59 60 62 63 64 65 66 65 65 66 67 70 73 75 76 77 78 78 79 78 77 77 77 76 75 74 73 73 72 70 63 57 61 57 52
52 53 55 56 57 57 58 59 58 58 59 59 59 61 63 64 67 67 69 69 72 75 79 82 83 83 85 86 85 86 86 85 82 82 80 78 76 74 73 68 65 61 60
47 46 45 44 43 44 48 50 53 53 51 47 43 42 44 47 50 54 57 58 63 65 68 73 73 71 73 76 80 81 84 83 84 86 87 83 82 80 78 76 75 69 67
37 38 39 41 41 38 36 36 36 39 43 44 44 46 47 48 46 48 51 54 59 64 68 71 72 75 78 77 76 77 76 71 71 72 77 82 86 84 82 81 78 77 73
38 37 32 26 26 27 29 30 30 33 36 38 43 42 43 46 50 54 55 58 59 59 59 61 65 73 78 80 80 79 80 77 76 73 73 77 77 85 87 87 84 84 82
17 14 15 17 17 18 21 25 30 34 39 44 47 48 47 47 47 48 52 53 52 56 63 66 70 69 73 78 82 82 81 81 79 76 76 77 77 78 83 90 89 89 86
11 11 13 16 19 22 24 26 28 27 29 33 33 32 33 29 30 38 35 34 40 43 41 44 49 54 63 71 75 79 82 82 79 78 77 79 77 78 79 83 89 91 89
11 13 16 17 22 21 16 12 12 14 21 26 26 26 23 29 29 23 29 34 36 38 37 41 43 49 58 67 74 76 78 80 78 78 77 75 75 74 75 77 80 87 87
10 14 17 15 20 16 2 6 9 17 27 33 26 25 22 25 24 25 29 31 30 32 33 37 41 45 40 46 64 73 74 69 72 73 71 68 68 67 66 69 73 76 81
14 16 18 18 20 16 10 10 16 22 27 30 32 24 23 23 24 26 31 32 33 34 32 32 37 41 42 43 42 50 62 74 66 66 64 63 63 62 62 62 68 71 72
17 19 22 23 22 19 12 13 15 23 23 27 31 29 28 29 30 28 31 27 29 33 33 33 33 38 35 36 34 22 34 51 55 58 59 54 56 57 58 59 62 68 68
21 22 24 23 24 22 17 15 16 22 22 23 27 30 26 27 27 26 27 25 36 36 33 32 33 35 31 26 24 18 10 20 37 43 51 46 46 50 47 48 52 60 66
23 23 25 25 24 24 23 22 18 22 23 23 25 27 24 25 34 29 31 34 34 35 32 29 31 32 32 27 19 14 9 13 28 29 33 39 43 45 42 45 48 55 58
22 24 24 24 25 27 25 23 20 21 21 23 25 27 28 29 26 32 32 35 34 35 33 31 30 32 30 26 20 15 6 5 13 28 30 35 40 42 46 47 47 47 51
23 22 21 20 22 19 22 26 24 23 21 23 25 28 29 31 29 30 31 36 38 38 39 34 31 30 30 26 19 14 11 8 10 15 27 34 36 34 38 38 36 38 39
19 19 18 17 20 19 18 20 21 22 21 22 25 28 30 31 33 31 30 30 33 36 40 41 40 33 32 28 24 16 9 6 7 10 15 20 22 25 32 32 29 30 31
19 17 16 16 16 17 15 15 18 20 22 24 25 27 29 31 31 31 31 29 27 29 33 35 34 42 28 34 25 25 13 7 4 3 4 7 8 13 18 22 21 23 24
21 23 20 18 18 16 15 16 17 21 24 27 27 26 27 29 31 31 30 30 27 27 28 28 32 30 35 34 36 32 22 9 4 1 4 6 7 11 14 16 18 19 21
21 19 19 21 20 17 17 18 19 22 26 28 28 29 30 31 32 32 31 29 27 26 26 27 27 27 29 27 31 33 30 17 11 9 7 3 8 13 17 18 19 20 21
24 25 26 22 21 20 22 22 24 26 28 29 30 32 32 32 32 31 31 30 29 27 25 24 25 24 24 25 24 26 23 22 17 11 19 17 5 9 7 8 10 7 13
26 25 26 29 25 24 24 22 22 19 20 23 25 27 29 30 28 26 27 28 30 30 29 26 24 23 23 23 22 21 21 17 16 11 15 15 13 13 8 6 10 10 13
31 30 30 31 32 30 27 26 26 27 26 24 24 26 26 25 25 20 22 23 25 28 29 30 31 28 25 23 23 23 21 21 17 18 19 21 22 18 15 14 13 13 13
37 38 38 37 37 37 37 36 32 32 33 32 31 31 30 28 28 28 26 25 25 24 25 27 28 28 29 30 29 27 26 25 24 23 22 22 22 22 22 21 20 20 20
46 46 45 45 44 43 42 43 42 39 37 37 39 36 36 35 33 33 33 32 30 27 28 29 28 27 28 29 30 29 31 31 28 28 28 27 27 27 27 27 27 27 27
Wind_Direction
269 271 272 274 275 276 275 275 275 273 273 273 273 272 271 271 271 271 270 270 271 270 271 270 269 267 266 265 264 263 262 260 260 248 262 266 259 256 259 260 254 253 253
271 273 274 275 275 276 277 277 277 276 275 274 273 273 272 272 271 271 271 270 269 268 268 267 267 266 265 263 262 262 261 260 256 256 255 253 254 257 253 254 253 255 251
273 275 277 278 278 278 278 278 277 277 276 276 275 275 274 273 272 272 271 270 270 270 269 268 266 265 265 263 261 259 259 259 256 255 253 253 253 254 250 255 252 252 251
273 273 274 275 276 278 278 277 278 279 279 279 277 276 275 275 274 274 273 273 271 270 269 268 266 264 264 263 262 260 257 256 256 254 253 252 251 251 251 244 246 247 251
277 278 279 278 280 281 280 280 281 280 280 279 279 278 276 274 275 275 275 277 276 275 275 273 270 267 264 263 261 259 256 255 254 254 251 252 251 249 249 248 246 244 241
273 274 276 278 280 281 283 282 282 279 280 282 284 284 282 280 279 279 278 275 275 270 267 266 268 267 265 264 260 258 254 251 252 252 251 252 249 251 248 248 246 244 244
278 279 281 278 283 282 281 280 282 284 288 292 293 290 283 283 279 281 277 276 282 278 272 272 271 267 265 261 258 256 252 251 252 251 253 252 250 248 248 248 245 244 243
274 281 284 285 284 293 294 293 296 297 298 295 289 288 289 288 285 288 286 286 285 275 278 278 276 274 266 260 258 254 252 252 251 253 251 252 252 250 247 245 247 247 244
261 272 281 292 303 303 309 309 309 310 309 303 296 292 296 300 292 297 300 303 295 291 290 290 287 281 272 264 259 256 253 251 247 248 247 248 250 250 248 246 244 245 246
272 280 291 308 321 323 323 325 326 340 348 333 318 304 305 316 317 293 295 292 292 293 295 293 291 288 277 269 263 257 252 249 247 244 243 243 247 247 247 246 245 244 244
281 285 292 311 316 313 316 342 349 358 351 350 342 329 321 339 340 320 307 300 300 301 296 300 305 308 298 299 274 259 251 251 246 242 238 238 241 243 243 245 245 245 245
282 291 303 306 299 287 294 315 336 345 338 351 352 350 325 333 330 325 317 316 311 314 319 314 315 324 317 312 307 263 249 242 243 241 237 234 238 240 244 246 246 246 245
293 294 295 287 285 275 292 300 325 335 340 348 354 356 344 349 343 343 333 336 348 340 325 330 331 332 326 326 339 308 253 240 236 237 235 235 239 240 243 247 248 247 247
300 297 293 292 279 273 263 286 313 323 332 343 345 349 2 359 354 351 349 345 345 347 347 339 341 342 341 338 343 345 301 251 235 234 232 232 239 242 243 248 247 244 246
302 297 297 291 283 272 263 268 293 313 323 337 341 342 350 350 358 347 351 354 351 355 357 351 351 351 349 342 339 350 294 272 230 232 237 235 237 240 242 246 248 245 244
316 311 311 309 304 294 263 266 285 303 317 332 337 338 338 337 352 5 359 1 357 358 3 8 4 0 357 354 337 329 325 317 240 233 236 234 238 245 243 250 251 249 243
324 315 312 316 318 302 274 268 278 298 309 326 336 343 345 340 339 343 352 3 6 9 11 12 13 13 12 1 358 345 323 273 258 244 234 233 240 251 242 247 248 245 242
315 304 305 314 323 322 303 281 285 296 305 317 326 336 342 347 350 343 343 343 359 7 3 11 13 6 12 14 12 3 1 317 290 259 240 234 238 235 235 236 235 234 235
301 312 308 310 315 318 308 297 288 293 302 312 313 322 330 335 340 346 345 343 341 348 1 360 358 5 9 22 16 10 3 23 23 342 266 252 236 224 226 233 240 238 236
317 313 306 305 307 312 312 297 288 286 293 301 303 309 315 322 326 330 335 344 343 339 341 347 351 358 13 16 16 19 12 13 350 259 234 226 222 233 239 238 236 233 238
336 336 336 321 303 297 297 292 287 286 288 292 295 300 304 308 312 315 319 325 332 339 336 338 340 346 348 355 356 2 15 23 15 7 350 282 256 247 247 248 244 241 237
318 323 326 328 334 329 306 297 297 297 295 293 295 299 301 304 309 311 310 312 315 321 328 333 333 336 337 340 345 349 358 358 12 22 27 5 313 307 308 257 235 248 233
302 304 307 310 313 317 314 315 318 321 322 313 309 306 306 307 309 314 318 315 313 312 314 317 323 326 326 326 332 336 342 340 337 341 343 354 357 353 329 296 286 289 269
289 293 294 294 297 298 296 299 302 303 303 304 304 307 309 310 310 314 318 324 330 330 325 318 315 314 317 316 313 315 318 320 317 304 306 312 318 322 323 321 316 311 298
281 284 285 285 286 287 287 288 286 292 296 297 299 300 300 301 303 304 305 307 309 313 318 324 330 330 325 318 310 307 304 304 305 304 301 299 296 294 293 294 293 289 285
279 277 276 277 279 281 281 282 283 281 280 285 287 286 288 291 294 298 301 301 300 299 300 304 308 309 310 313 317 317 306 300 296 292 292 290 290 290 289 285 280 276 275